FW4661 Weather Reports


time (UTC)temp
F
wind
direction
speed
knots
gust
knots
rain 1hr
in
rain 24hr
in
rain mn
in
humidity
%
barometer
mb
20260507080215 66 0 0.0 0.0 0.00 0.00 0.00 56 1024.7
20260507075003 66 270 0.0 20.9 0.00 0.00 0.00 56 1024.7
20260507074003 65 45 0.0 4.3 0.00 0.00 0.00 59 1024.9
20260507073004 65 45 0.9 4.3 0.00 0.00 0.00 61 1024.9
20260507072003 65 0 0.0 0.0 0.00 0.00 0.00 61 1024.5
20260507071003 65 348 0.0 4.3 0.00 0.00 0.00 62 1024.5
20260507070009 64 353 0.9 4.3 0.00 0.00 0.00 62 1024.4
20260507065003 64 32 0.0 7.8 0.00 0.00 0.00 63 1024.7
20260507064003 64 315 0.0 5.2 0.00 0.00 0.00 65 1024.6
20260507063004 63 349 0.9 20.0 0.00 0.00 0.00 65 1024.9
20260507062004 64 337 0.0 0.9 0.00 0.00 0.00 65 1025.0
20260507061003 64 360 0.0 1.7 0.00 0.00 0.00 64 1024.9
20260507060004 64 302 0.0 1.7 0.00 0.00 0.00 63 1025.0
20260507055003 64 360 0.0 15.6 0.00 0.00 0.00 63 1024.7
20260507054003 64 90 0.0 7.0 0.00 0.00 0.00 63 1025.0
20260507053100 64 54 0.9 7.0 0.00 0.00 0.00 62 1024.7
20260507052004 65 354 1.7 24.3 0.00 0.00 0.00 61 1024.9
20260507051003 65 359 0.9 60.8 0.00 0.00 0.00 61 1025.0
20260507050005 65 11 0.9 40.8 0.00 0.00 0.00 60 1024.6
20260507045003 65 338 0.0 13.0 0.00 0.00 0.00 60 1025.8
20260507044003 65 293 0.0 14.8 0.00 0.00 0.00 60 1025.7
20260507043215 65 303 0.0 14.8 0.00 0.00 0.00 60 1026.1
20260507042011 65 357 1.7 13.0 0.00 0.00 0.00 61 1026.4
20260507041003 65 345 3.5 13.0 0.00 0.00 0.00 61 1026.3
20260507040218 65 1 0.0 13.0 0.00 0.00 0.00 62 1026.3
20260507035003 65 297 0.0 3.5 0.00 0.00 0.00 61 1026.5
20260507034214 65 358 0.0 18.2 0.00 0.00 0.00 61 1026.5
20260507033004 65 340 0.0 10.4 0.00 0.00 0.00 60 1026.7
20260507032216 65 351 0.0 10.4 0.00 0.00 0.00 60 1026.8
20260507031217 66 320 0.0 15.6 0.00 0.00 0.00 59 1026.9
20260507030213 66 338 3.5 21.7 0.00 0.00 0.00 57 1026.3
20260507025003 67 307 0.9 26.9 0.00 0.00 0.00 55 1026.5
20260507024003 68 345 1.7 11.3 0.00 0.00 0.00 54 1026.0
20260507023216 68 290 0.0 18.2 0.00 0.00 0.00 53 1026.4
20260507022217 67 25 0.0 9.6 0.00 0.00 0.00 55 1026.4
20260507021003 68 333 0.0 7.0 0.00 0.00 0.00 55 1026.7
20260507020042 68 315 0.0 5.2 0.00 0.00 0.00 53 1026.5
20260507015004 68 340 0.0 13.0 0.00 0.00 0.00 53 1026.8
20260507014013 68 303 1.7 8.7 0.00 0.00 0.00 54 1026.8
20260507013217 68 320 0.0 7.0 0.00 0.00 0.00 54 1026.8
20260507012218 67 1 0.0 4.3 0.00 0.00 0.00 54 1027.1
20260507011214 67 329 0.0 1.7 0.00 0.00 0.00 54 1027.5
20260507010004 67 333 0.9 20.9 0.00 0.00 0.00 54 1027.5
20260507005003 66 320 0.9 7.8 0.00 0.00 0.00 57 1027.8
20260507004003 65 333 0.0 18.2 0.00 0.00 0.00 58 1028.1
20260507003004 64 309 2.6 56.5 0.00 0.00 0.00 59 1028.2
20260507002003 64 312 3.5 18.2 0.00 0.00 0.00 59 1028.4
20260507001003 65 319 1.7 29.5 0.00 0.00 0.00 58 1028.5
20260507000215 65 359 2.6 25.2 0.00 0.00 0.00 56 1028.7
20260506235003 66 339 4.3 12.2 0.00 0.00 0.00 54 1029.0
20260506234003 65 338 0.0 9.6 0.00 0.00 0.00 54 1029.0
20260506232003 65 358 1.7 7.0 0.00 0.00 0.00 55 1029.2
20260506231215 64 360 1.7 7.0 0.00 0.00 0.00 54 1029.5
20260506230216 64 318 0.0 25.2 0.00 0.00 0.00 54 1029.5
20260506225004 64 359 4.3 62.6 0.00 0.00 0.00 55 1029.8
20260506224004 63 351 35.6 62.6 0.00 0.00 0.00 57 1030.3
20260506223003 63 25 33.9 62.6 0.00 0.00 0.00 57 1030.3
20260506221003 62 348 13.9 42.6 0.00 0.00 0.00 59 1030.8
20260506220004 62 351 23.5 56.5 0.00 0.00 0.00 60 1031.2
20260506215004 62 346 15.6 42.6 0.00 0.00 0.00 62 1031.4
20260506214003 62 343 4.3 34.8 0.00 0.00 0.00 62 1031.5
20260506213214 62 324 9.6 70.4 0.00 0.00 0.00 62 1031.6
20260506212215 62 358 25.2 100.8 0.00 0.00 0.00 61 1031.4
20260506211003 62 306 16.5 45.2 0.00 0.00 0.00 62 1031.7
20260506210217 62 313 7.8 40.0 0.00 0.00 0.00 61 1031.9
20260506205004 62 354 14.8 98.2 0.00 0.00 0.00 60 1032.0
20260506204004 63 319 7.8 29.5 0.00 0.00 0.00 58 1032.2
20260506203215 63 321 6.1 51.3 0.00 0.00 0.00 58 1032.0
20260506202004 64 349 18.2 60.8 0.00 0.00 0.00 55 1032.1
20260506201217 64 5 22.6 65.2 0.00 0.00 0.00 55 1032.2
20260506200003 64 358 14.8 73.9 0.00 0.00 0.00 54 1032.5
20260506195004 64 347 23.5 80.8 0.00 0.00 0.00 54 1032.4
20260506194003 63 8 33.0 92.1 0.00 0.00 0.00 55 1032.4
20260506193215 63 336 12.2 84.3 0.00 0.00 0.00 56 1032.6
20260506192004 62 349 31.3 81.7 0.00 0.00 0.00 59 1032.6
20260506191003 62 359 15.6 66.0 0.00 0.00 0.00 59 1032.8
20260506190213 63 343 15.6 56.5 0.00 0.00 0.00 58 1033.0
20260506185004 64 291 10.4 52.1 0.00 0.00 0.00 56 1032.8
20260506184004 64 354 17.4 62.6 0.00 0.00 0.00 54 1032.9
20260506183003 64 355 35.6 116.4 0.00 0.00 0.00 54 1033.2
20260506182004 64 2 18.2 68.6 0.00 0.00 0.00 54 1033.5
20260506181004 64 347 16.5 43.4 0.00 0.00 0.00 54 1033.5
20260506180004 64 329 16.5 47.8 0.00 0.00 0.00 54 1033.5
20260506175215 64 335 12.2 55.6 0.00 0.00 0.00 54 1033.7
20260506174004 64 333 8.7 49.5 0.00 0.00 0.00 54 1033.6
20260506173004 64 3 16.5 66.0 0.00 0.00 0.00 55 1033.8
20260506172004 65 359 17.4 90.4 0.00 0.00 0.00 54 1033.9
20260506171004 65 294 27.8 81.7 0.00 0.00 0.00 54 1034.0
20260506170003 65 311 10.4 73.0 0.00 0.00 0.00 55 1034.2
20260506165003 65 324 29.5 72.1 0.00 0.00 0.00 55 1034.3
20260506164216 64 328 19.1 63.4 0.00 0.00 0.00 57 1034.3
20260506163003 64 330 21.7 65.2 0.00 0.00 0.00 58 1034.7
20260506162213 63 10 13.0 66.9 0.00 0.00 0.00 59 1034.9
20260506161214 63 295 21.7 73.0 0.00 0.00 0.00 60 1035.2
20260506160003 62 309 7.0 61.7 0.00 0.00 0.00 62 1035.2
20260506155003 62 342 10.4 58.2 0.00 0.00 0.00 63 1035.4
20260506154003 61 24 16.5 81.7 0.00 0.00 0.00 64 1035.6
20260506153003 61 355 11.3 70.4 0.00 0.00 0.00 66 1035.6
20260506152004 61 313 13.9 58.2 0.00 0.00 0.00 67 1035.8
20260506151004 61 347 20.9 53.0 0.00 0.00 0.00 67 1036.0
20260506150004 61 346 18.2 46.1 0.00 0.00 0.00 67 1035.9
20260506145217 61 337 13.0 35.6 0.00 0.00 0.00 69 1036.1
20260506144003 60 316 12.2 60.0 0.00 0.00 0.00 70 1036.4
20260506143003 60 8 7.0 44.3 0.00 0.00 0.00 70 1036.5
20260506142004 60 289 15.6 62.6 0.00 0.00 0.00 70 1036.8
20260506141003 60 329 11.3 61.7 0.00 0.00 0.00 70 1036.9
20260506140004 60 328 11.3 37.4 0.00 0.00 0.00 70 1036.9
20260506135003 60 327 10.4 20.9 0.00 0.00 0.00 70 1037.0
20260506134004 60 339 0.9 34.8 0.00 0.00 0.00 70 1037.2
20260506133004 59 338 6.1 37.4 0.00 0.00 0.00 71 1037.2
20260506132003 59 337 1.7 8.7 0.00 0.00 0.00 71 1037.3
20260506131004 59 322 6.1 9.6 0.00 0.00 0.00 71 1037.4
20260506130217 59 351 2.6 15.6 0.00 0.00 0.00 71 1037.4
20260506125003 59 342 1.7 12.2 0.00 0.00 0.00 71 1037.7
20260506124004 59 335 2.6 7.8 0.00 0.00 0.00 71 1037.7
20260506123004 58 353 3.5 46.1 0.00 0.00 0.00 71 1037.6
20260506122003 58 334 1.7 20.9 0.00 0.00 0.00 71 1037.7
20260506121217 58 335 3.5 29.5 0.00 0.00 0.00 71 1037.9
20260506120004 58 317 2.6 37.4 0.00 0.00 0.00 72 1038.0
20260506115213 58 329 6.1 37.4 0.00 0.00 0.00 72 1038.0
20260506114003 58 339 8.7 27.8 0.00 0.00 0.00 72 1037.9
20260506113003 58 339 12.2 29.5 0.00 0.00 0.00 72 1038.1
20260506112003 58 355 3.5 20.0 0.00 0.00 0.00 71 1038.4
20260506111003 58 288 0.0 13.0 0.00 0.00 0.00 72 1038.4
20260506110004 58 322 2.6 7.0 0.00 0.00 0.00 72 1038.3
20260506105003 58 348 3.5 10.4 0.00 0.00 0.00 72 1038.4
20260506104003 58 337 5.2 20.0 0.00 0.00 0.00 71 1038.3
20260506103004 58 320 0.0 2.6 0.00 0.00 0.00 71 1038.5
20260506102003 59 315 0.0 17.4 0.00 0.00 0.00 71 1038.7
20260506101213 59 326 2.6 7.0 0.00 0.00 0.00 71 1038.6
20260506100214 59 312 3.5 7.8 0.00 0.00 0.00 71 1038.4
20260506095004 59 329 1.7 13.9 0.00 0.00 0.00 70 1038.7
20260506094216 59 339 1.7 12.2 0.00 0.00 0.00 70 1038.8
20260506093217 59 328 7.0 14.8 0.00 0.00 0.00 71 1038.8
20260506092212 58 355 5.2 18.2 0.00 0.00 0.00 71 1038.7
20260506091004 58 336 2.6 14.8 0.00 0.00 0.00 72 1038.7
20260506090004 57 26 3.5 8.7 0.00 0.00 0.00 74 1038.5
20260506085003 56 332 1.7 4.3 0.00 0.00 0.00 75 1038.7
20260506084004 56 313 0.0 5.2 0.00 0.00 0.00 76 1038.7
20260506083003 56 342 2.6 11.3 0.00 0.00 0.00 78 1038.8
20260506082003 56 328 3.5 8.7 0.00 0.00 0.00 79 1039.0
20260506081003 56 339 0.9 8.7 0.00 0.00 0.00 79 1039.0